Regional Weather Roundup
Issued by NWS

Home | Current Version | Previous Version | Text Only | Print | Product List | Glossary On
Versions: 1 2 3 4 5 6 7 8 9 10 11 12 13 14 15 16 17 18 19 20 21 22 23 24 25 26 27 28 29 30 31 32 33 34 35 36 37 38 39 40 41 42 43 44 45 46 47 48 49 50
000
ASUS44 KFWD 301715
RWRTX
NORTH TEXAS HOURLY WEATHER ROUNDUP
NATIONAL WEATHER SERVICE FORT WORTH TX
1200 PM CDT MON MAR 30 2015

NOTE: "FAIR" INDICATES FEW OR NO CLOUDS BELOW 12,000 FEET WITH NO
SIGNIFICANT WEATHER AND/OR OBSTRUCTIONS TO VISIBILITY.

TXZ118-119-301800-
DALLAS/FORT WORTH METROPLEX

CITY           SKY/WX    TMP DP  RH WIND       PRES   REMARKS
DFW AIRPORT    CLOUDY    68  62  81 S5        30.17R
DALLAS LOVE    CLOUDY    71  62  73 S9        30.17S
FTW MEACHAM    CLOUDY    71  62  73 E8        30.16S
DAL-EXECUTIVE  CLOUDY    69  62  78 SE9       30.17S
FTW-ALLIANCE   CLOUDY    70  61  73 SE7       30.17R
FTW-NAS-JRB    CLOUDY    73  63  70 SE6       30.20S
FTW-SPINKS     CLOUDY    70  61  73 SE7       30.18S
ARLINGTON      CLOUDY    72  61  68 SE10      30.17S
GRAND PRAIRIE  PTSUNNY   70  63  78 SE7       30.18S
ADDISON        CLOUDY    68  61  77 SE6       30.17F
MESQUITE       CLOUDY    70  63  78 SE9       30.18F
LANCASTER      CLOUDY    68  62  79 SE7       30.19S
$$

TXZ091>094-102>105-117-120-121-131>134-301800-
NORTH CENTRAL TEXAS

CITY           SKY/WX    TMP DP  RH WIND       PRES   REMARKS
SHRMAN/DENISON CLOUDY    70  60  72 SE9       30.20R
GAINESVILLE    SUNNY     70  59  67 SE9       30.20S
BOWIE          SUNNY     72  53  50 E5        30.19S
BRIDGEPORT     PTSUNNY   70  60  71 CALM      30.21R
DECATUR        MOSUNNY   70  57  64 SE7       30.19R
DENTON         CLOUDY    70  60  70 SE9       30.17S
MCKINNEY       CLOUDY    68  62  81 SE10      30.17F
GREENVILLE     CLOUDY    68  63  83 SE7       30.19S
TERRELL        CLOUDY    69  64  84 SE6       30.19S
WAXAHACHIE     CLOUDY    69  65  86 S9        30.18F
CLEBURNE       CLOUDY    68  64  88 VRB7      30.18F
GRANBURY         N/A     70  61  72 CALM      30.19R
$$

TXZ083>090-098>101-113>116-127>130-139>142-154-155-301800-
WESTERN NORTH TEXAS

CITY           SKY/WX    TMP DP  RH WIND       PRES   REMARKS
WICHITA FALLS  MOSUNNY   71  45  39 E13       30.19F
WF-KICKAPOO    SUNNY     73  45  37 E12       30.20F
VERNON         MOSUNNY   71  34  25 E9        30.22F
ABILENE        CLOUDY    67  49  52 CALM      30.21S
ABILENE-DYESS  CLOUDY    65  49  56 VRB3      30.20S
BRECKENRIDGE   PTSUNNY   72  52  48 NE6       30.19F
GRAHAM         PTSUNNY   72  56  57 N5        30.18S
MINERAL WELLS  PTSUNNY   69  59  70 VRB6      30.17R
STEPHENVILLE   MOSUNNY   70  59  68 CALM      30.21R
COMANCHE       MOSUNNY   72  58  60 N3        30.18S
BROWNWOOD      MOSUNNY   72  55  56 SE3       30.19R
COLEMAN        MOSUNNY   71  56  58 NE5       30.19F
BRADY          SUNNY     77  54  44 W6        30.18F
$$

TXZ143>147-156>162-174-175-301800-
CENTRAL TEXAS

CITY           SKY/WX    TMP DP  RH WIND       PRES   REMARKS
WACO           CLOUDY    72  63  73 S12       30.17S
WACO-MCGREGOR  CLOUDY    73  61  64 S13       30.18S
HILLSBORO      CLOUDY    71  63  73 S9        30.17F
CORSICANA      CLOUDY    71  62  73 SW8       30.19S
MEXIA          CLOUDY    71  63  76 S12       30.18R
HEARNE         PTSUNNY   74  64  71 SE10      30.19F
CAMERON        CLOUDY    73  64  72 S10       30.18S
TEMPLE         CLOUDY    72  59  64 S10       30.17S
KILLEEN        PTSUNNY   72  63  73 S10G17    30.17S
KILLEEN-SKYLRK CLOUDY    72  61  68 MISG      30.18S
FORT HOOD      CLOUDY    72  63  73 S8        30.17S
GATESVILLE     PTSUNNY   73  63  68 SW8       30.18F
HAMILTON       SUNNY     75  57  54 S9        30.17S
LAMPASAS       MOSUNNY   73  64  73 S6        30.16F
$$

TXZ095>097-106>112-122>126-135>138-148>153-164>167-301800-
EAST TEXAS

CITY           SKY/WX    TMP DP  RH WIND       PRES   REMARKS
SULPHUR SPRNGS CLOUDY    69  63  81 S7        30.21S
MOUNT PLEASANT CLOUDY    70  62  75 S6        30.20F
GILMER         CLOUDY    71  63  76 S5        30.19F
MINEOLA        CLOUDY    70  64  83 S3        30.20F
TYLER          CLOUDY    71  62  73 S8        30.20S
LONGVIEW       CLOUDY    72  62  71 SW9       30.20S
MARSHALL         N/A     73  65  74 SW7       30.23S
ATHENS         CLOUDY    68  61  77 SE6       30.19S
PALESTINE      CLOUDY    73  64  73 S5        30.21S
JACKSONVILLE   CLOUDY    69  62  78 S5        30.23S
HENDERSON      CLOUDY    71  62  72 SW6       30.22S
NACOGDOCHES    CLOUDY    72  61  68 SW6       30.22S
LUFKIN         CLOUDY    78  60  53 SW9       30.21S
$$

SUPPLEMENTAL OBSERVATIONS (CENTRAL)

CITY           SKY/WX    TMP DP  RH WIND       PRES   REMARKS
LAKE TEXOMA      N/A     68  55  64 SE7         N/A
CADDO GRASSLND   N/A     73  54  49 S9          N/A
PAT MAYSE LAKE   N/A     70  52  52 SE8         N/A
GREENVILLE       N/A     70  63  78 S5          N/A
CEDAR HILL       N/A     72  61  68 SE6         N/A
LAKE LIMESTONE   N/A    N/A N/A N/A S13         N/A
MCGREGOR         N/A     73  63  68 S10         N/A
TEMPLE           N/A     72  61  68 S6G14       N/A
$$

SUPPLEMENTAL OBSERVATIONS (WEST)

CITY           SKY/WX    TMP DP  RH WIND       PRES   REMARKS
MILLERS CREEK    N/A     73  50  43 E3          N/A
POSSUM KINGDOM   N/A     72  54  53 E8          N/A
LBJ GRASSLAND    N/A     73  57  56 SE5         N/A
GRANBURY         N/A     72  61  68 E2          N/A
COMANCHE         N/A     73  59  60 N3          N/A
HAMBY            N/A     72  52  49 NE5         N/A
IVIE RESERVOIR   N/A     73  54  49 W6          N/A
COLORADO BEND    N/A    N/A N/A N/A S7          N/A
$$

SUPPLEMENTAL OBSERVATIONS (EAST)

CITY           SKY/WX    TMP DP  RH WIND       PRES   REMARKS
CLARKSVILLE      N/A     73  55  53 E6          N/A
GILMER           N/A     73  63  68 SW8         N/A
HENDERSON        N/A     72  61  68 SW7         N/A
LUFKIN           N/A     75  59  57 MISG        N/A
S SABINE NF      N/A     73  59  60 CALM        N/A
$$

SUPPLEMENTAL OBSERVATIONS ARE A COLLECTION OF AUTOMATED INSTRUMENTS
THAT ARE MAINTAINED BY A VARIETY OF FEDERAL AND STATE AGENCIES.
CERTAIN ELEMENTS...SUCH AS HUMIDITY VALUES AND SUSTAINED WIND
SPEEDS...MAY BE APPROXIMATED.




USA.gov is the U.S. government's official web portal to all federal, state and local government web resources and services.